Tracking 30995 objects as of 5-Jul-2025
HD Live streaming from Space Station
objects crossing your sky now

DMSP 5D-2 F13 DEB

Track DMSP 5D-2 F13 DEB now!
10-day predictions


NORAD ID: 40672
Int'l Code: 1995-015FL
Perigee: 587.1 km
Apogee: 592.5 km
Inclination: 98.7 °
Period: 96.3 minutes
Semi major axis: 6960 km
RCS: Unknown
Launch date: March 24, 1995
Source: United States (US)
Launch site: AIR FORCE WESTERN TEST RANGE (AFWTR)

Note: This is SATELLITE DEBRIS
Your satellite tracking list
Your tracking list is empty




NASA's NSSDC Master Catalog

Two Line Element Set (TLE):
1 40672U 95015FL  25186.14302196  .00057345  00000-0  52229-2 0  9993
2 40672  98.6717 253.8607 0003862 139.3144 220.8363 14.94895608533575
Source of the keplerian elements: AFSPC